Location: Lecco
(45.8566°N, 9.3977°E)
Time: 04:42:20
(UTC+02:00)

Transit 2A Rocket - Visible Passes

Search period start: 08 May 2021 00:00
Search period end: 18 May 2021 00:00
Orbit: 594 x 909 km, 66.7° (Epoch: 07 May)

Date Brightness Start Highest point End Pass type
(mag) Time Alt. Az. Time Alt. Az. Time Alt. Az.
08 May 7.3 22:21:44 10° WNW 22:24:19 15° WSW 22:27:01 10° SW visible
09 May 6.7 21:38:05 10° WNW 21:41:57 25° WSW 21:46:03 10° SSW visible
12 May 7.3 21:13:14 10° WNW 21:16:28 18° WSW 21:19:50 10° SSW visible
